Lid_Strength_Index
4 4 4 5 5 6 6 5 5 4 4 5 4 5 5 4 4 5 6 4 6 9 8 7 6 8 7 8 10 7 8 8 8 11 11 11 11 9 10 8 9 10 11 12 11 14 15 6 7 12 9 6 6 6
4 4 5 5 5 6 6 5 5 5 5 5 5 5 5 5 4 5 7 5 4 8 8 6 6 5 6 6 7 7 8 8 8 10 9 9 10 9 9 12 7 11 9 13 11 11 6 5 6 5 5 7 6 6
5 5 5 5 5 6 5 5 6 6 5 5 5 5 5 5 5 5 6 5 5 8 7 6 6 3 3 4 4 9 7 6 6 4 7 8 10 7 11 10 8 7 5 8 9 7 6 6 4 4 4 5 4 4
5 5 5 5 5 6 6 6 5 5 5 5 5 5 5 5 4 4 6 3 4 6 10 6 3 4 3 3 4 4 5 4 4 4 7 8 10 6 9 8 9 7 6 8 8 7 6 5 5 4 4 4 4 4
5 5 5 5 5 5 5 5 5 6 5 5 5 4 3 3 3 3 3 3 3 6 9 8 5 4 3 3 4 4 4 4 5 7 8 9 7 7 7 7 9 6 8 11 12 7 7 6 5 4 5 5 4 5
4 4 4 4 5 4 4 4 4 4 3 3 3 3 3 3 3 4 6 3 3 3 8 10 5 5 3 3 4 4 4 4 5 6 7 6 5 7 10 10 6 5 4 5 7 5 5 5 4 4 5 5 5 5
4 4 4 4 4 3 3 3 4 3 4 4 3 3 3 3 3 6 7 4 2 2 7 10 8 4 4 4 4 4 2 4 5 6 7 7 7 6 9 11 6 5 5 4 4 4 6 5 6 4 4 4 4 4
3 3 3 3 4 3 3 3 4 3 3 3 3 3 2 2 3 5 3 2 2 5 6 10 9 6 3 5 6 3 5 4 5 6 5 7 6 7 11 6 5 5 4 5 5 4 4 4 3 5 5 4 6 7
3 3 3 3 3 3 3 3 3 3 3 2 2 2 2 3 5 4 2 1 1 4 8 8 9 10 3 4 4 5 5 9 4 8 8 7 10 12 8 6 6 5 6 6 4 4 4 6 6 6 7 7 7 8
2 2 2 2 2 2 2 3 2 2 2 2 2 4 6 2 1 1 3 5 6 6 5 9 6 8 5 6 5 6 6 8 11 8 6 10 10 6 5 4 4 5 4 4 5 6 6 7 8 8 8 7 7 9
2 2 2 2 1 1 1 2 2 1 2 2 4 4 1 0 2 3 7 7 7 9 7 7 7 8 4 7 7 5 8 9 13 10 10 11 12 7 4 4 3 3 3 3 4 5 6 7 7 8 8 8 8 9
1 1 1 1 1 1 1 1 1 2 2 2 3 2 2 3 5 7 8 6 7 8 6 6 6 5 4 3 7 6 9 9 12 8 11 13 8 5 4 4 3 3 3 4 4 5 6 6 6 6 7 8 8 7
1 1 1 1 1 1 1 0 1 1 1 1 3 5 5 6 10 10 11 9 8 7 5 5 7 5 5 4 7 8 12 11 7 11 11 9 6 5 4 4 3 3 4 4 4 4 4 5 5 5 6 6 7 7
1 1 1 1 1 1 0 1 1 1 2 5 7 10 9 9 8 7 8 8 6 6 6 5 6 7 6 8 7 12 9 9 12 14 12 7 6 5 4 3 3 3 3 4 4 3 4 4 4 4 4 5 5 6
1 1 1 1 1 1 1 1 1 1 3 6 6 10 8 6 5 5 4 4 4 4 5 5 5 5 7 9 8 9 11 12 11 11 8 6 5 4 4 3 3 3 3 3 3 3 3 4 4 4 3 3 4 4
1 1 1 1 0 1 1 1 1 1 3 5 6 7 6 6 6 5 5 5 3 4 4 4 6 8 9 9 11 12 12 12 10 7 5 4 4 4 4 3 3 3 3 3 3 3 3 3 4 3 3 3 3 3
0 1 -0 -0 0 0 0 0 2 4 5 7 7 5 6 6 6 5 4 4 2 4 7 6 10 11 8 10 11 8 10 8 5 5 4 3 4 3 3 3 3 2 2 2 2 2 2 2 3 3 3 3 3 3
1 -0 0 -0 -0 0 0 1 3 5 8 6 7 6 5 4 5 5 4 3 4 5 5 7 6 9 11 12 12 7 5 4 4 4 4 3 2 2 2 3 2 2 2 2 2 2 2 2 3 4 2 2 3 3
0 -0 0 0 0 1 3 3 3 7 7 6 5 4 4 5 3 3 3 3 3 3 4 6 8 8 8 7 8 7 5 4 5 4 3 2 2 2 2 2 2 2 2 2 2 3 2 2 2 3 3 3 4 4
0 -0 0 0 1 2 5 4 2 5 7 6 5 5 5 5 4 4 3 3 4 5 6 8 7 6 5 5 5 5 4 3 4 5 5 3 3 2 2 2 2 2 2 2 2 4 2 2 2 2 3 4 4 4
0 -0 0 1 1 2 4 5 5 5 5 6 5 5 6 5 5 5 5 3 5 6 7 5 5 4 3 3 3 3 3 3 4 4 4 4 3 2 2 2 2 2 2 2 2 3 3 3 2 2 2 3 3 3
-0 0 0 1 3 4 5 3 5 4 5 6 6 5 6 6 6 5 3 5 6 5 4 4 4 3 4 4 3 2 2 2 3 4 5 4 3 3 3 2 2 2 2 2 2 3 3 2 2 1 2 2 3 3
1 1 2 3 6 6 7 3 6 6 8 7 5 7 6 6 5 3 5 5 4 3 3 3 3 2 3 3 2 2 2 3 4 4 4 3 3 2 2 2 2 2 2 2 1 2 2 5 3 2 1 2 2 2
2 4 6 7 6 8 5 6 5 6 6 7 7 8 7 5 4 6 7 5 4 2 3 2 2 3 3 3 4 3 3 2 3 3 3 3 3 3 2 2 1 1 1 1 1 1 1 2 4 2 1 2 2 2
7 8 7 9 6 8 9 8 8 7 9 7 9 8 6 5 7 7 7 6 4 4 3 2 2 3 4 3 3 3 2 2 3 4 4 3 3 2 2 2 1 1 0 1 2 2 2 2 2 2 2 2 2 2
11 8 9 8 7 9 8 10 9 9 9 9 8 6 6 7 9 10 9 6 5 4 3 3 3 2 3 3 3 3 3 2 3 4 4 2 2 2 2 3 3 2 0 0 1 1 2 2 2 2 2 3 7 2
11 9 7 5 6 6 7 6 6 7 9 9 8 8 9 11 11 8 5 4 4 3 2 2 2 3 3 2 2 2 2 2 3 3 2 2 1 1 1 2 3 2 0 0 0 1 1 2 2 3 2 2 2 2
9 8 9 7 7 6 9 8 8 9 7 6 6 10 11 10 10 6 5 4 4 3 2 1 1 1 1 1 2 2 2 2 2 2 2 2 1 1 0 0 0 8 0 0 1 1 1 1 2 2 2 2 2 1
9 7 7 9 9 8 8 8 8 6 4 5 8 9 8 6 6 7 6 5 4 3 3 3 2 1 1 1 2 2 3 3 4 5 5 3 2 2 0 0 0 0 -0 0 10 6 2 2 2 2 1 1 1 1
9 7 9 9 10 10 7 5 5 4 4 5 5 5 6 6 6 5 5 5 4 3 3 2 2 2 2 3 3 2 1 1 1 2 4 4 3 1 1 0 0 0 0 1 1 1 9 4 5 2 2 1 2 2
6 7 9 8 9 7 6 5 5 6 6 7 7 7 7 7 6 5 6 6 5 4 4 4 3 3 3 3 3 3 3 2 2 2 1 1 1 1 1 1 0 0 1 1 1 1 1 2 2 2 2 2 2 3
8 9 9 11 9 7 7 8 8 8 8 8 8 7 7 7 8 7 5 6 7 7 7 5 5 5 4 3 3 3 8 3 3 3 3 2 1 1 0 0 0 1 1 1 1 1 1 1 2 2 2 2 3 2
7 7 8 9 9 10 7 7 8 9 8 8 9 8 9 9 11 7 3 4 6 6 5 5 5 5 5 4 4 4 5 2 5 10 11 11 11 10 3 1 0 0 0 1 1 1 1 2 2 2 3 3 4 4